Location: Newark
(42.7133°N, 87.7910°W)
Time: 05:19:10
(UTC+00:00)

A-11 Canister half - Pass Details

Date: 24 September 2019
Orbit: 1527 x 1682 km, 47.3° (Epoch: 20 October)

Event Time Altitude Azimuth Distance (km) Brightness Sun altitude
Exits shadow 10:53:54 11° 267° (W) 3,674 10.3 -9.3°
Maximum altitude 11:03:10 70° 351° (N) 1,661 9.2 -7.7°
Drops below altitude 10° 11:12:55 10° 75° (ENE) 3,842 12.8 -5.9°
Sets 11:16:07 0° 78° (ENE) 4,849 14.1 -5.3°
